CAPE
1 21 13 2 1 0 0 0 0 0 0 0 0 0 0 0 0 0 0 0 0 0 0 0 0 0 0 0 0 0 0 0 0 0 0 0 0 0 0 0 0 0 0 0 0 0 0 0 0 0 0 0 0 0
0 0 0 9 17 2 1 0 0 0 0 0 0 0 0 0 0 0 0 0 0 0 0 0 0 0 0 0 0 0 0 0 0 0 0 0 0 0 0 0 0 0 0 0 0 0 0 0 0 0 0 0 0 0
0 0 0 0 0 9 12 1 0 0 0 0 0 0 0 0 0 0 0 0 0 0 0 0 0 0 0 0 0 0 0 0 0 0 0 0 0 0 0 0 0 0 0 0 0 0 0 0 0 0 0 0 0 0
1 0 0 0 0 3 9 10 3 1 1 0 0 0 0 0 0 0 0 0 0 0 0 0 0 0 0 0 0 0 0 0 0 0 0 0 0 0 0 0 0 0 0 0 0 0 0 0 0 0 0 0 0 0
3 3 3 3 1 0 0 7 28 12 2 1 1 0 0 0 0 0 0 0 0 0 0 0 0 0 0 0 0 0 0 0 0 0 0 0 0 0 0 0 0 0 0 0 0 0 0 0 0 0 0 0 0 0
9 8 7 6 5 4 1 0 0 15 30 8 1 0 0 0 0 0 0 0 4 0 0 0 0 0 0 0 0 0 0 0 0 0 0 0 0 0 0 0 0 0 0 0 0 0 0 0 0 0 0 0 0 0
7 7 6 8 9 5 3 3 0 0 25 23 6 1 0 0 0 0 0 0 0 0 0 0 0 0 0 0 0 0 0 0 0 0 0 0 0 0 0 0 0 0 0 0 0 0 0 0 0 0 0 0 0 0
4 4 12 11 12 15 10 10 8 3 0 21 21 2 2 0 2 1 0 0 0 0 0 0 0 0 0 0 0 0 0 0 0 0 0 0 0 0 0 0 0 0 0 0 0 0 0 0 0 0 0 0 0 0
3 2 10 17 9 15 20 18 13 10 0 3 56 5 3 0 1 0 0 5 2 0 0 0 0 0 0 0 0 0 0 0 0 0 0 0 0 0 0 0 0 0 0 0 0 0 0 0 0 0 0 0 0 0
4 9 10 14 9 9 22 24 18 9 0 1 13 0 0 0 1 0 3 5 9 1 4 1 0 0 0 0 0 0 0 0 0 0 0 0 0 0 0 0 0 0 0 0 0 0 0 0 0 0 0 0 1 1
1 3 10 15 18 13 19 26 24 13 27 49 3 0 1 14 1 1 1 1 0 0 1 0 0 0 0 0 0 0 0 0 0 0 0 0 0 0 0 0 0 0 0 0 0 0 0 0 0 0 0 0 0 0
1 5 13 19 25 29 22 17 19 10 14 8 0 0 0 2 1 0 0 1 2 1 0 1 0 0 0 0 0 0 0 0 0 0 0 0 0 0 0 0 0 0 0 0 0 0 0 0 0 0 0 0 0 0
1 9 12 28 30 35 32 9 10 12 27 1 0 0 0 0 0 0 0 0 0 0 0 0 1 0 0 0 0 0 0 0 0 0 0 0 0 0 0 0 0 0 0 0 0 0 0 0 0 0 0 0 1 0
3 12 26 26 31 15 20 8 8 32 13 0 0 0 0 0 0 0 0 0 0 0 0 0 0 0 0 0 0 0 0 0 0 0 0 0 0 0 0 0 0 0 0 0 0 0 0 0 0 0 0 0 0 0
14 31 38 27 31 24 16 13 9 32 32 0 0 0 0 0 0 0 0 0 0 0 0 0 0 0 0 0 0 0 1 0 0 0 0 0 0 0 0 0 0 0 0 0 0 0 0 0 0 0 0 0 0 0
21 32 2 23 33 44 28 14 13 17 9 0 0 0 0 0 0 0 0 0 0 0 0 0 0 0 0 0 1 0 0 0 0 0 0 0 0 0 0 0 0 0 0 0 0 0 0 0 0 0 0 0 0 0
35 6 8 13 30 33 30 15 9 7 0 0 0 0 0 0 0 0 0 0 0 0 0 0 0 0 0 1 0 0 0 0 0 0 0 0 0 0 0 0 0 0 0 0 0 0 0 0 0 0 0 0 0 0
13 8 15 10 30 31 33 14 3 0 0 0 0 0 0 0 0 0 14 0 0 0 0 0 0 0 0 0 0 0 0 0 0 0 0 0 0 0 0 0 0 0 0 0 0 0 0 0 0 0 0 0 0 0
15 9 28 35 27 13 4 2 0 0 0 0 0 0 0 0 0 0 3 0 0 0 0 0 0 0 0 0 0 0 0 0 0 0 0 0 0 0 0 0 0 0 0 0 0 0 0 0 0 0 0 0 0 0
43 44 44 28 33 3 0 0 0 0 0 0 0 0 0 0 0 1 5 0 0 0 0 0 0 0 0 0 0 0 0 0 0 0 0 0 0 0 0 0 0 0 0 0 0 1 0 0 0 0 0 1 0 0
52 50 38 31 22 0 0 0 0 0 0 0 0 0 0 0 0 0 23 0 1 0 0 0 0 0 0 0 0 0 0 0 0 0 0 0 0 0 0 0 0 0 0 0 0 0 3 0 0 0 0 0 0 0
28 25 7 1 0 0 0 0 0 0 0 0 0 0 0 0 0 0 0 0 0 1 0 0 0 0 0 0 0 0 0 0 0 0 0 0 0 0 0 0 0 0 0 0 0 0 0 0 0 0 0 0 0 0
0 0 0 0 0 0 0 0 0 2 0 0 0 1 0 0 0 1 0 0 0 0 0 0 0 0 0 0 0 0 0 0 0 0 0 0 0 0 0 0 0 0 0 0 0 0 0 0 0 0 0 0 0 0
0 0 0 0 0 0 0 0 0 0 1 1 1 0 0 0 0 0 0 0 0 0 0 0 0 0 0 0 0 0 0 0 0 0 0 0 0 0 0 0 0 0 0 0 0 0 0 0 0 0 0 0 0 0
0 0 0 0 0 0 0 1 0 0 0 0 0 0 0 0 0 0 0 0 0 0 0 0 0 0 0 0 0 0 0 0 0 0 0 0 0 0 0 0 0 0 0 0 0 0 0 0 0 0 0 0 0 0
0 0 0 0 0 0 0 0 0 0 0 0 0 0 0 0 0 0 0 0 0 0 0 0 0 0 0 0 0 0 0 0 0 0 0 0 0 0 0 0 0 0 0 0 0 0 0 0 0 0 0 0 0 0
0 0 0 0 0 0 0 0 0 0 0 0 0 0 0 0 0 0 0 0 0 0 0 0 0 0 0 0 0 0 0 0 0 0 0 0 0 0 0 0 0 0 0 0 0 0 0 0 0 0 0 0 0 0
0 0 0 0 0 0 0 0 0 0 0 0 0 0 0 0 0 0 0 0 0 0 0 0 0 0 0 0 0 0 0 0 0 0 0 0 0 0 0 0 0 0 0 0 0 0 0 0 0 0 0 0 0 0
0 0 0 0 0 0 0 0 0 0 0 0 0 0 0 0 0 0 0 0 0 0 0 0 0 0 0 0 0 0 0 0 0 0 0 0 0 0 0 0 0 0 0 0 0 0 0 0 0 0 0 0 0 0
0 0 0 0 0 0 0 0 0 0 0 0 0 0 0 0 0 0 0 0 0 0 0 0 0 0 0 0 0 0 0 0 0 0 0 0 0 0 0 0 0 0 0 0 0 0 0 0 0 0 0 0 0 0
0 0 0 0 0 1 0 0 0 0 0 0 0 0 0 0 0 0 0 0 0 0 0 0 0 0 0 0 0 0 0 0 0 0 0 0 0 0 0 0 0 0 0 0 0 0 0 0 0 0 0 0 0 0
0 0 0 0 1 0 0 0 0 0 0 0 0 0 0 0 0 0 0 0 0 0 0 0 0 0 0 0 0 0 0 0 0 0 0 0 0 0 0 0 0 0 0 0 0 0 0 0 0 0 0 0 0 0
0 0 0 0 0 0 0 0 0 0 0 0 0 0 0 0 0 0 0 0 0 0 0 0 0 0 0 0 0 0 0 0 0 0 0 0 0 0 0 0 0 0 0 0 0 0 0 0 0 0 0 0 0 0
CIN
-1 -0 -0 -5 -0 -0 -0 -0 -0 -0 -0 -0 -0 -0 -0 -0 -0 -0 -0 -0 -0 -0 -0 -0 -0 -0 -0 -0 -0 -0 -0 -0 -0 -0 -0 -0 -0 -0 -0 -0 -0 -0 -0 -0 -0 -0 -0 -0 -0 -0 -0 -0 -0 -0
-0 -0 -0 -1 -0 -3 -0 -0 -0 -0 -0 -0 -0 -0 -0 -0 -0 -0 -0 -0 -0 -0 -0 -0 -0 -0 -0 -0 -0 -0 -0 -0 -0 -0 -0 -0 -0 -0 -0 -0 -0 -0 -0 -0 -0 -0 -0 -0 -0 -0 -0 -0 -0 -0
-0 -0 -0 -0 -0 -0 -4 -0 -0 -0 -0 -0 -0 -0 -0 -0 -0 -0 -0 -0 -0 -0 -0 -0 -0 -0 -0 -0 -0 -0 -0 -0 -0 -0 -0 -0 -0 -0 -0 -0 -0 -0 -0 -0 -0 -0 -0 -0 -0 -0 -0 -0 -0 -0
-0 -0 -0 -0 -0 -0 -0 -0 -6 -0 -0 -0 -0 -0 -0 -0 -0 -0 -0 -0 -0 -0 -0 -0 -0 -0 -0 -0 -0 -0 -0 -0 -0 -0 -0 -0 -0 -0 -0 -0 -0 -0 -0 -0 -0 -0 -0 -0 -0 -0 -0 -0 -0 -0
-0 -0 -0 -0 -0 -0 -0 -1 -1 -5 -0 -0 -0 -0 -0 -0 -0 -0 -0 -0 -0 -0 -0 -0 -0 -0 -0 -0 -0 -0 -0 -0 -0 -0 -0 -0 -0 -0 -0 -0 -0 -0 -0 -0 -0 -0 -0 -0 -0 -0 -0 -0 -0 -0
-0 -0 -0 -0 -0 -0 -1 -0 -0 -0 -4 -14 -0 -0 -0 -0 -0 -0 -0 -0 -3 -0 -0 -0 -0 -0 -0 -0 -0 -0 -0 -0 -0 -0 -0 -0 -0 -0 -0 -0 -0 -0 -0 -0 -0 -0 -0 -0 -0 -0 -0 -0 -0 -0
-0 -0 -0 -0 -0 -1 -1 -1 -0 -0 -0 -1 -10 -1 -0 -0 -0 -0 -0 -0 -0 -0 -0 -0 -0 -0 -0 -0 -0 -0 -0 -0 -0 -0 -0 -0 -0 -2 -2 -0 -0 -0 -0 -0 -0 -0 -0 -0 -0 -0 -0 -0 -0 -0
-0 -0 -0 -0 -0 -0 -1 -0 -1 -1 -0 -0 -1 -4 -39 -1 -2 -1 -0 -0 -0 -0 -0 -0 -0 -0 -0 -0 -0 -0 -0 -0 -0 -0 -0 -0 -0 -0 -0 -0 -0 -0 -0 -0 -0 -0 -0 -0 -0 -0 -0 -0 -0 -0
-0 -0 -0 -0 -0 -0 -0 -0 -1 -2 -0 -5 -0 -52 -0 -0 -0 -0 -0 -6 -9 -0 -0 -0 -0 -0 -0 -0 -0 -0 -0 -0 -0 -0 -0 -0 -0 -0 -0 -0 -0 -0 -0 -0 -0 -0 -0 -0 -0 -0 -0 -1 -0 -0
-0 -0 -0 -0 -0 -0 -0 -0 -1 -3 -0 -5 -16 -0 -0 -0 -10 -0 -1 -0 -0 -0 -0 -0 -0 -0 -0 -0 -0 -0 -0 -0 -0 -0 -0 -0 -0 -0 -0 -0 -0 -0 -0 -0 -0 -0 -0 -0 -0 -0 -0 -1 -1 -0
-0 -1 -1 -2 -2 -2 -0 -3 -6 -6 -1 -1 -6 -0 -1 -2 -3 -0 -0 -0 -0 -0 -3 -0 -0 -0 -0 -0 -0 -0 -0 -0 -0 -0 -0 -0 -0 -0 -0 -0 -0 -0 -0 -0 -0 -0 -0 -0 -0 -0 -0 -0 -3 -0
-0 -1 -1 -1 -3 -3 -3 -9 -23 -12 -5 -8 -11 -0 -0 -0 -0 -0 -0 -0 -0 -0 -0 -0 -0 -0 -0 -0 -0 -0 -0 -0 -0 -0 -0 -0 -0 -0 -0 -0 -0 -0 -0 -0 -0 -0 -0 -0 -0 -0 -0 -0 -0 -1
-1 -2 -3 -2 -1 -2 -3 -15 -23 -22 -16 -13 -0 -0 -0 -0 -0 -0 -0 -0 -0 -0 -0 -0 -0 -0 -0 -0 -0 -0 -0 -0 -0 -0 -0 -0 -0 -0 -0 -0 -0 -0 -0 -0 -0 -0 -0 -0 -0 -0 -0 -0 -2 -0
-1 -2 -3 -4 -3 -6 -5 -14 -28 -7 -6 -0 -0 -0 -0 -0 -0 -0 -0 -0 -0 -0 -0 -0 -0 -0 -0 -0 -0 -0 -0 -0 -0 -0 -0 -0 -0 -0 -0 -0 -0 -0 -0 -0 -0 -0 -0 -0 -0 -0 -1 -0 -0 -0
-2 -2 -2 -2 -2 -5 -5 -12 -31 -9 -0 -3 -0 -0 -0 -0 -0 -0 -0 -0 -0 -0 -0 -0 -0 -0 -0 -0 -0 -0 -0 -0 -0 -0 -0 -0 -0 -0 -0 -0 -0 -0 -0 -0 -0 -0 -0 -0 -0 -0 -0 -0 -0 -0
-1 -1 -2 -1 -0 -1 -6 -8 -9 -2 -0 -0 -0 -0 -0 -0 -0 -0 -0 -0 -0 -0 -0 -0 -0 -0 -0 -0 -0 -0 -0 -0 -0 -0 -0 -0 -0 -0 -0 -0 -0 -0 -0 -0 -0 -0 -0 -0 -0 -0 -0 -0 -0 -0
-0 -0 -0 -0 -0 -4 -9 -1 -0 -0 -0 -0 -0 -0 -0 -0 -0 -0 -0 -0 -0 -0 -0 -0 -0 -0 -0 -0 -0 -0 -0 -0 -0 -0 -0 -0 -0 -0 -0 -0 -0 -0 -0 -0 -0 -0 -0 -0 -0 -1 -1 -0 -0 -0
-0 -2 -1 -1 -1 -0 -0 -0 -0 -0 -0 -0 -0 -0 -0 -0 -0 -0 -35 -0 -0 -0 -0 -0 -0 -0 -0 -0 -0 -0 -0 -0 -0 -0 -0 -0 -0 -0 -0 -0 -0 -0 -0 -0 -0 -0 -1 -0 -0 -0 -0 -2 -2 -0
-0 -0 -0 -2 -0 -0 -0 -0 -0 -0 -0 -0 -0 -0 -0 -0 -0 -0 -39 -0 -0 -0 -0 -0 -0 -0 -0 -0 -0 -0 -0 -0 -0 -0 -0 -0 -0 -0 -0 -0 -0 -0 -0 -0 -0 -0 -1 -0 -1 -1 -0 -0 -2 -2
-1 -0 -0 -4 -0 -0 -0 -0 -0 -0 -0 -0 -0 -0 -0 -0 -0 -68 -44 -0 -0 -0 -0 -0 -0 -0 -0 -0 -0 -0 -0 -0 -0 -0 -0 -0 -0 -0 -0 -0 -0 -0 -0 -0 -0 -2 -0 -0 -0 -0 -0 -5 -2 -0
-0 -0 -0 -0 -0 -0 -0 -0 -0 -0 -0 -0 -0 -0 -0 -0 -0 -0 -54 -0 -0 -0 -0 -0 -0 -0 -0 -0 -0 -0 -0 -0 -0 -0 -0 -0 -0 -0 -0 -0 -0 -0 -0 -0 -0 -2 -2 -4 -0 -0 -1 -1 -0 -0
-1 -1 -1 -4 -0 -0 -0 -0 -0 -0 -0 -0 -0 -0 -0 -0 -0 -0 -0 -0 -0 -1 -0 -0 -0 -0 -0 -0 -0 -0 -0 -0 -0 -0 -0 -0 -0 -0 -0 -0 -0 -0 -0 -0 -0 -0 -7 -0 -0 -0 -1 -0 -0 -0
-0 -0 -0 -0 -0 -0 -0 -0 -0 -0 -0 -0 -0 -3 -0 -0 -0 -0 -0 -0 -0 -0 -0 -0 -0 -0 -0 -0 -0 -0 -0 -0 -0 -0 -0 -0 -0 -0 -0 -0 -0 -0 -0 -0 -0 -4 -2 -0 -0 -2 -1 -0 -0 -0
-0 -0 -0 -0 -0 -0 -0 -0 -0 -0 -0 -0 -0 -0 -0 -0 -0 -0 -0 -0 -0 -0 -0 -0 -0 -0 -0 -0 -0 -0 -0 -0 -0 -0 -0 -0 -0 -0 -0 -0 -0 -0 -0 -0 -0 -13 -0 -0 -0 -0 -0 -1 -0 -0
-0 -0 -0 -0 -0 -0 -0 -0 -0 -0 -0 -0 -0 -0 -0 -0 -0 -0 -0 -0 -0 -0 -0 -0 -0 -0 -0 -0 -0 -0 -0 -0 -0 -0 -0 -0 -0 -0 -0 -0 -0 -0 -0 -0 -0 -9 -0 -0 -0 -0 -0 -0 -0 -0
-0 -0 -0 -0 -0 -0 -0 -0 -0 -0 -0 -0 -0 -0 -0 -0 -0 -0 -0 -0 -0 -0 -0 -0 -0 -0 -0 -0 -0 -0 -0 -0 -0 -0 -0 -0 -0 -0 -0 -0 -0 -0 -0 -0 -10 -0 -0 -0 -0 -0 -0 -0 -0 -0
-0 -0 -0 -0 -0 -0 -0 -0 -0 -0 -0 -0 -0 -0 -0 -0 -0 -0 -0 -0 -0 -0 -0 -0 -0 -0 -0 -0 -0 -0 -0 -0 -0 -0 -0 -0 -0 -0 -0 -0 -0 -0 -0 -0 -0 -0 -0 -0 -0 -0 -0 -0 -0 -0
-0 -0 -0 -0 -0 -0 -0 -0 -0 -0 -0 -0 -0 -0 -0 -0 -0 -0 -0 -0 -0 -0 -0 -0 -0 -0 -0 -0 -0 -0 -0 -0 -0 -0 -0 -0 -0 -0 -0 -0 -0 -0 -0 -0 -0 -0 -0 -0 -0 -0 -0 -0 -0 -0
-0 -0 -0 -0 -0 -0 -0 -0 -0 -0 -0 -0 -0 -0 -0 -0 -0 -0 -0 -0 -0 -0 -0 -0 -0 -0 -0 -0 -0 -0 -0 -0 -0 -0 -0 -0 -0 -0 -0 -0 -0 -0 -0 -0 -0 -0 -0 -0 -0 -0 -0 -0 -0 -0
-0 -0 -0 -0 -0 -0 -0 -0 -0 -0 -0 -0 -0 -0 -0 -0 -0 -0 -0 -0 -0 -0 -0 -0 -0 -1 -0 -0 -0 -0 -0 -0 -0 -0 -0 -0 -0 -0 -0 -0 -0 -0 -0 -0 -0 -0 -0 -0 -0 -0 -0 -0 -0 -0
-0 -0 -0 -0 -0 -0 -0 -0 -0 -0 -0 -0 -0 -0 -0 -0 -0 -0 -0 -0 -0 -0 -0 -0 -0 -0 -0 -0 -0 -0 -0 -0 -0 -0 -0 -0 -0 -0 -0 -0 -0 -0 -0 -0 -0 -0 -0 -0 -0 -0 -0 -0 -0 -0
-0 -0 -0 -0 -0 -0 -0 -0 -0 -0 -0 -0 -0 -0 -0 -0 -0 -0 -0 -0 -0 -0 -0 -0 -0 -0 -0 -0 -0 -0 -0 -0 -0 -0 -0 -0 -0 -0 -0 -0 -0 -0 -0 -0 -0 -0 -0 -0 -0 -0 -0 -0 -0 -0
-0 -0 -0 -0 -0 -0 -0 -0 -0 -0 -0 -0 -0 -0 -0 -0 -0 -0 -0 -0 -0 -0 -0 -0 -0 -0 -0 -0 -0 -0 -0 -0 -0 -0 -0 -0 -0 -0 -0 -0 -0 -0 -0 -0 -0 -0 -0 -0 -0 -0 -0 -0 -0 -0
Wind_Speed
31 31 30 29 28 28 28 27 27 27 27 27 28 28 29 29 29 24 24 25 22 26 26 23 20 22 21 21 25 20 21 20 19 23 24 25 27 27 31 27 27 26 30 31 29 32 41 23 31 40 41 43 44 44
31 31 32 32 30 29 28 27 27 27 26 25 26 27 28 29 29 28 26 26 24 24 25 24 24 22 21 20 20 17 20 18 15 19 21 23 28 28 29 37 22 28 22 29 24 28 25 30 38 36 38 41 43 47
32 32 32 32 32 30 27 26 26 26 25 24 24 25 26 26 27 27 26 29 26 28 30 27 26 22 19 17 16 19 19 16 17 18 21 23 28 25 32 31 28 25 23 27 32 31 30 34 37 34 37 42 44 46
33 33 33 33 32 32 28 26 24 24 24 24 23 23 23 23 23 25 27 27 26 28 33 29 21 22 18 16 15 16 17 17 18 19 22 24 26 23 30 29 30 26 28 29 32 33 33 30 31 36 40 42 46 44
32 33 34 34 33 33 33 31 24 22 22 21 21 20 20 21 23 24 25 24 23 25 31 30 28 25 17 17 14 15 16 17 20 22 24 25 24 29 30 31 31 25 26 28 34 28 30 33 33 36 41 45 45 46
33 34 34 35 34 34 32 30 30 25 23 21 20 19 18 18 20 24 29 23 19 21 27 32 23 22 18 16 13 15 16 19 21 23 25 24 22 28 33 34 29 23 21 20 29 27 30 30 32 36 41 44 43 43
35 34 36 36 35 34 33 31 31 30 22 21 20 18 17 18 18 24 25 21 15 18 26 31 29 24 15 16 18 18 17 19 21 25 29 28 25 24 30 35 30 22 24 29 27 28 29 30 36 38 40 40 40 39
35 37 36 35 36 35 34 33 32 31 29 24 21 18 17 18 19 23 19 15 13 21 24 28 28 27 17 23 24 16 20 21 23 24 25 26 25 23 32 26 27 24 21 24 20 22 27 31 35 38 38 39 40 41
37 37 35 35 35 35 34 33 32 31 31 28 21 16 20 22 25 22 15 14 18 22 30 29 30 32 18 21 20 19 21 27 23 27 27 23 25 28 24 27 26 22 23 22 21 24 29 33 36 37 37 38 40 40
38 37 36 36 35 35 34 33 32 30 28 25 18 22 28 24 11 11 19 22 23 24 27 34 24 28 20 22 23 23 24 27 31 28 23 27 32 23 25 24 22 19 15 18 24 28 31 34 35 35 36 35 36 36
37 37 37 36 35 34 33 31 30 28 26 21 26 27 20 6 16 23 28 28 27 32 28 30 27 27 22 24 25 23 26 24 31 28 24 31 34 29 20 19 16 13 14 18 22 25 27 30 33 33 34 33 35 34
38 37 36 36 35 33 31 30 27 25 24 24 22 17 18 23 24 26 29 28 31 36 28 27 24 18 21 19 23 22 25 23 31 21 27 32 32 27 24 21 16 12 13 18 21 24 27 28 29 30 31 32 32 32
39 37 36 34 32 29 27 25 24 21 18 20 24 23 23 24 33 35 39 36 35 28 24 21 22 18 19 19 21 21 24 26 22 26 29 29 31 24 20 14 12 13 16 19 21 24 25 26 27 28 28 29 29 30
38 36 34 33 31 28 25 22 19 17 17 23 26 36 33 32 35 39 41 37 31 27 19 17 19 19 21 21 21 25 22 23 27 29 32 29 24 19 14 11 11 14 17 19 21 23 24 25 26 26 26 27 27 30
37 36 34 31 29 26 22 19 20 18 19 23 21 30 34 36 35 33 33 34 26 19 16 18 23 21 21 22 22 22 24 27 25 31 28 30 24 15 11 10 12 15 16 19 21 23 23 23 24 24 25 24 25 28
36 36 33 30 27 25 23 21 22 21 23 24 26 28 27 28 31 35 37 31 21 17 17 22 25 25 25 22 23 25 27 29 32 29 27 26 21 14 11 10 13 15 16 20 21 22 21 21 21 21 23 22 24 27
32 37 31 27 24 23 22 23 21 25 25 27 31 28 29 33 33 30 31 30 22 23 30 27 28 28 21 25 29 25 29 32 30 28 26 22 16 13 11 12 14 15 17 19 20 20 20 20 20 19 22 22 22 25
32 29 26 23 20 21 24 25 26 26 31 29 29 29 25 26 26 29 25 20 25 32 32 36 27 30 30 33 34 29 29 32 29 27 25 19 14 12 12 13 14 15 17 18 18 19 19 19 19 19 20 21 21 24
29 27 25 21 20 21 22 23 25 32 32 31 31 29 26 28 24 25 25 22 32 35 33 28 33 35 36 33 33 32 30 28 28 24 20 16 14 13 13 14 16 16 16 16 17 18 18 17 17 18 18 19 20 23
23 22 19 18 20 20 21 22 22 30 34 32 31 29 27 28 27 28 26 23 26 36 40 41 42 42 38 34 28 27 27 25 24 22 22 19 15 14 14 15 15 14 15 17 16 16 16 15 15 15 17 17 18 21
19 18 16 15 19 21 22 19 20 24 25 30 30 27 28 29 26 26 25 23 27 33 37 41 45 47 42 37 34 29 28 23 21 20 23 20 15 14 15 15 14 14 15 15 15 14 13 13 14 14 15 16 17 20
17 13 19 20 24 22 25 17 18 17 20 23 20 20 27 26 24 22 22 28 34 35 34 33 42 44 42 42 39 35 27 21 19 18 18 16 15 16 15 14 13 14 13 12 12 12 13 11 11 13 14 15 17 20
12 18 21 23 21 20 20 17 20 18 20 20 18 21 24 23 20 14 24 24 27 24 28 34 41 37 39 39 37 34 22 18 18 17 17 15 15 15 14 12 11 11 11 10 10 11 11 10 10 12 14 14 17 21
15 19 23 22 19 16 14 18 16 18 19 18 19 22 22 18 15 19 26 19 17 20 19 21 34 42 43 40 37 36 25 21 20 18 14 13 14 14 13 11 10 9 9 9 9 8 8 9 10 11 13 14 16 21
13 14 15 15 17 15 15 16 20 21 17 15 16 20 19 15 18 23 24 24 24 26 24 20 25 30 43 43 39 35 28 21 18 17 14 12 14 15 13 10 10 9 8 7 7 6 7 8 9 10 13 13 16 23
14 15 12 11 11 14 12 14 15 15 15 17 18 18 16 18 23 24 20 14 11 25 14 13 11 22 32 24 29 29 21 16 13 13 12 9 9 8 8 8 8 9 6 5 5 6 6 8 9 11 14 14 16 23
10 6 13 18 15 12 14 16 13 15 14 14 14 15 18 23 22 19 30 30 16 21 21 21 8 6 10 17 18 19 15 9 9 9 8 6 6 7 5 5 6 8 5 5 5 5 6 6 8 10 14 15 17 20
8 6 5 7 16 18 16 14 14 12 14 14 11 15 14 11 18 26 24 21 24 22 20 18 17 14 13 12 11 9 8 7 8 9 9 10 9 7 6 8 7 5 4 3 3 5 6 8 9 11 14 16 17 19
21 10 11 10 11 16 17 12 10 11 8 8 10 14 16 18 20 23 21 20 19 18 17 15 15 14 13 11 10 8 6 5 5 6 6 8 8 8 8 8 7 6 4 4 4 6 8 8 10 13 15 17 19 20
11 11 12 13 12 10 14 16 16 14 16 11 13 14 18 19 20 20 20 18 15 14 15 14 12 11 10 10 10 10 9 7 5 3 5 5 5 7 6 5 5 4 4 6 7 8 8 10 12 15 16 18 18 19
10 12 12 12 12 14 16 15 14 14 14 15 14 14 18 18 18 19 17 16 14 13 12 12 11 11 10 9 8 7 7 10 9 9 9 10 6 5 3 2 3 4 5 5 7 8 10 12 13 14 17 19 20 21
8 9 10 15 15 15 16 15 15 15 17 18 17 16 16 17 17 17 18 16 13 12 11 11 10 9 10 9 9 9 13 9 9 9 8 9 7 5 4 4 4 4 5 6 8 10 11 12 14 16 18 20 23 24
9 14 15 14 14 17 18 18 18 16 16 14 14 14 14 13 11 14 14 15 13 12 10 10 11 10 10 10 10 10 12 12 12 10 10 10 8 6 6 6 5 5 6 8 10 11 12 13 15 17 19 22 24 26
Wind_Direction
307 306 307 308 310 312 315 317 320 323 323 325 327 328 330 330 330 335 336 341 335 320 319 323 324 318 319 317 313 323 324 326 328 323 326 329 330 332 333 335 338 334 333 333 334 329 329 349 345 338 332 333 335 337
311 309 308 305 306 307 310 312 315 318 320 321 322 323 325 327 326 328 325 331 331 321 317 320 317 315 316 319 314 315 318 326 328 326 326 330 327 329 330 327 336 330 329 333 329 329 333 332 330 334 336 337 338 336
312 313 312 308 308 306 308 309 311 312 315 318 320 322 323 325 327 328 326 327 326 320 315 313 313 320 311 311 319 308 311 319 320 325 324 326 322 329 326 327 328 330 323 321 328 332 328 330 330 336 340 339 339 337
310 311 311 312 312 309 308 307 308 308 309 312 313 315 320 322 326 327 323 325 325 323 315 315 321 317 322 312 301 308 317 318 318 319 316 319 321 328 324 324 323 323 327 323 320 322 327 332 338 338 339 340 339 342
312 310 308 308 309 310 308 308 306 304 306 307 308 310 313 316 317 320 318 321 324 321 312 315 317 318 314 313 303 303 306 309 311 310 313 313 321 322 323 322 317 319 318 321 323 331 331 334 338 341 340 342 343 343
309 308 306 305 306 307 310 310 307 303 299 301 302 303 307 311 316 317 311 320 319 323 318 311 318 315 318 317 308 302 301 305 306 311 311 317 319 322 321 321 325 322 319 319 322 330 330 335 339 343 342 343 346 346
306 305 303 302 304 306 308 308 309 306 299 298 295 294 297 303 306 307 309 320 326 325 317 311 313 317 322 319 310 309 310 311 309 307 306 307 312 317 319 318 326 327 326 325 324 330 333 339 339 343 345 347 349 349
304 302 301 301 302 303 304 305 305 305 302 294 290 285 290 295 299 298 307 318 320 317 314 308 307 310 314 309 306 313 308 310 312 309 315 313 316 313 316 315 324 327 327 330 335 339 339 341 342 345 348 350 351 351
300 301 301 301 302 300 301 302 303 302 301 299 287 280 293 289 290 298 299 293 302 303 301 299 298 304 311 313 314 312 314 309 313 308 309 314 312 310 312 317 319 323 327 332 338 339 340 341 343 347 350 352 352 353
298 299 299 299 299 299 298 299 300 301 300 299 286 285 283 288 297 312 304 296 293 291 288 289 292 295 302 301 303 309 311 310 307 311 319 312 308 305 314 313 316 322 330 335 335 336 339 341 346 349 351 354 354 356
297 297 297 297 296 297 296 296 297 299 300 290 282 276 293 258 290 289 287 285 287 289 289 288 278 288 296 293 298 303 308 311 308 313 313 314 316 324 323 322 320 317 327 334 338 341 344 346 348 351 353 356 357 359
295 294 294 294 294 293 294 293 291 291 293 290 292 289 285 279 282 278 276 284 282 286 287 289 292 280 296 300 298 300 301 307 305 319 313 314 322 323 326 328 333 340 341 340 342 343 345 348 351 353 356 357 359 1
293 292 292 291 291 290 290 289 286 284 290 291 283 289 275 273 266 268 271 280 282 285 286 289 293 285 295 298 300 302 300 301 316 310 309 314 323 328 332 340 344 345 343 343 343 345 348 350 353 355 358 360 3 4
290 289 288 287 286 284 282 281 280 279 284 280 276 273 273 273 273 268 274 273 280 285 275 277 286 290 294 291 296 297 300 308 305 306 309 317 322 324 329 335 339 339 340 341 343 345 347 350 353 357 0 1 5 4
286 286 284 281 278 277 274 269 267 261 272 273 276 274 276 274 273 279 280 279 279 268 263 274 291 291 291 289 291 296 298 297 303 311 314 321 325 321 317 321 329 334 337 340 342 344 346 349 352 356 0 3 5 4
284 283 278 279 274 269 266 264 266 262 271 269 274 274 271 280 285 279 277 275 275 261 271 281 281 284 281 283 286 289 291 292 307 311 313 320 321 321 315 315 324 331 335 337 340 342 345 349 351 355 358 3 3 2
283 278 280 274 267 261 257 262 263 260 267 269 266 267 267 276 279 280 278 274 259 252 264 274 274 277 282 280 285 290 288 299 308 311 315 317 313 315 315 317 324 330 333 335 337 341 344 348 351 354 355 1 2 0
276 283 278 267 258 258 260 255 259 263 262 265 266 261 266 269 272 280 292 264 257 263 262 267 276 268 271 278 288 294 296 302 304 307 311 312 309 311 313 316 323 326 329 332 336 340 342 345 348 350 355 359 1 359
275 276 266 260 245 253 263 256 254 264 264 269 270 275 271 277 273 277 280 261 262 268 275 271 270 267 270 283 288 295 300 301 303 305 307 307 306 306 311 318 321 323 325 330 333 335 338 344 348 352 358 359 2 358
264 259 245 239 221 255 261 264 266 262 266 270 274 274 275 278 279 278 277 266 258 265 265 266 268 273 280 281 288 296 301 303 305 301 305 306 300 301 304 311 315 319 323 326 329 334 339 344 349 355 357 358 1 354
265 248 219 220 239 255 259 268 267 272 272 271 275 273 279 285 278 271 267 267 260 269 273 271 269 270 275 282 288 294 301 299 292 294 306 305 301 298 304 310 313 317 319 322 325 331 337 342 349 355 355 356 359 352
261 228 251 248 254 259 258 257 271 278 277 284 280 275 284 282 285 283 281 271 273 270 276 277 272 271 275 276 281 288 293 290 293 298 305 307 302 302 305 306 310 312 314 318 323 328 334 345 351 352 354 357 357 347
240 246 248 254 254 255 265 255 269 274 278 280 278 283 289 292 296 300 289 284 281 272 274 275 274 275 276 277 283 285 282 281 284 290 298 298 303 306 306 306 307 312 314 318 325 329 334 345 349 351 352 357 354 342
236 243 246 255 256 261 258 270 278 269 272 273 278 286 294 301 308 300 298 280 236 285 272 276 279 272 272 273 276 275 284 283 286 291 290 290 297 305 305 300 303 309 315 322 326 331 339 343 347 351 352 356 354 338
250 249 254 255 261 263 272 263 262 265 272 280 282 291 299 308 306 304 303 303 296 294 289 289 286 279 266 264 269 275 283 280 281 283 286 286 297 306 303 300 304 311 319 321 325 332 335 341 345 347 347 353 350 330
254 260 254 260 252 259 257 259 260 272 281 287 291 298 305 306 308 309 320 315 298 297 294 223 247 282 273 280 277 281 286 286 284 283 287 281 283 286 290 291 299 309 316 319 321 324 330 337 341 340 338 346 345 328
260 278 268 260 260 263 268 274 273 277 287 294 304 304 307 308 310 316 288 272 334 322 311 306 202 233 284 291 292 294 299 292 287 286 297 289 289 290 280 282 293 314 322 313 315 322 330 337 339 338 335 340 341 334
279 273 245 245 256 264 277 280 281 283 290 301 302 302 313 324 327 290 290 311 312 307 306 309 315 321 319 318 318 320 321 322 324 326 328 324 325 323 323 321 324 327 327 322 323 328 334 336 335 334 331 334 335 333
242 261 247 264 282 282 277 290 298 308 321 309 309 310 310 314 312 295 314 318 320 320 322 333 336 340 343 342 339 339 332 328 320 310 302 304 310 318 328 331 334 336 341 341 336 332 330 332 331 330 328 326 326 325
256 268 269 271 284 310 304 296 294 305 306 317 323 324 300 303 308 309 311 317 328 338 337 340 345 350 351 350 348 347 350 355 352 342 324 319 320 329 328 325 334 336 336 327 324 327 331 329 328 326 324 321 322 323
272 274 279 290 306 305 297 297 301 307 314 314 319 322 301 301 315 315 319 326 337 344 345 348 354 357 2 8 17 21 11 343 344 342 337 335 337 339 347 340 342 342 334 332 328 325 325 324 325 325 321 318 317 317
306 295 291 278 279 281 292 310 317 318 306 298 307 313 310 314 319 324 327 330 339 343 347 349 353 0 0 5 360 349 342 351 350 347 345 339 337 338 341 337 334 332 331 326 322 321 322 322 322 322 319 315 312 311
289 268 269 281 298 290 286 287 288 308 306 326 320 321 325 333 347 343 345 343 346 351 2 359 352 359 357 354 352 348 343 342 339 336 329 329 332 333 332 329 327 324 322 319 319 320 321 322 321 321 318 313 309 307